GFSNIL_sfc_temp_132.txt.gz
Temp
64 63 63 62 62 60 60 60 59 58 59 59 59 59 58 58 58 59 58 58 59 59
62 62 62 61 60 61 60 60 57 57 58 58 58 58 58 59 58 58 58 59 58 58
61 62 62 60 59 59 60 57 56 56 57 58 58 58 58 60 60 59 59 58 58 58
60 60 60 59 58 59 57 56 57 57 57 58 58 59 59 59 60 58 58 59 57 57
58 56 56 58 59 55 57 56 58 59 59 59 59 60 59 59 59 58 57 57 56 55
54 55 55 56 55 55 55 56 57 58 58 59 59 59 58 58 58 55 55 54 53 53
51 52 51 52 53 53 53 54 54 55 55 53 53 52 50 49 50 49 49 48 47 47
45 45 45 44 44 48 48 49 48 48 46 45 45 44 45 44 45 44 44 43 43 43
42 41 41 39 38 42 42 43 42 41 41 41 41 42 42 42 42 42 41 40 41 40
39 39 38 37 37 36 36 37 37 38 39 40 41 41 42 40 40 39 39 39 37 37
37 37 36 36 35 35 35 35 35 37 38 38 37 40 40 39 37 37 38 37 36 35
36 33 33 32 32 33 33 35 34 35 34 34 34 39 39 38 34 35 35 34 35 35
34 32 31 31 32 32 34 34 34 33 33 33 33 38 39 38 33 33 31 30 34 34
30 30 31 31 31 33 33 33 33 33 33 33 33 33 38 39 33 33 33 32 29 30

GFSNIL_sfc_temp_135.txt.gz
Temp
66 65 65 66 65 64 64 63 63 61 62 62 62 61 61 61 60 60 59 59 60 60
65 65 65 66 64 64 63 62 61 61 60 61 61 61 61 60 59 59 59 59 59 59
64 64 65 64 62 62 63 61 60 59 60 60 60 60 60 60 60 59 59 58 58 58
62 62 63 62 61 61 61 59 59 59 58 58 59 59 59 58 59 58 58 59 58 57
60 60 60 60 61 59 59 58 59 58 58 59 59 59 58 58 58 58 57 57 56 55
57 57 58 58 59 56 57 57 57 58 58 58 59 59 58 58 58 57 55 54 52 51
54 55 56 55 54 54 55 56 56 56 56 55 54 53 51 50 50 49 49 47 47 47
50 50 50 51 50 50 51 51 51 49 47 47 47 45 46 46 46 46 45 44 44 44
45 44 45 43 42 44 43 44 44 43 44 44 41 42 42 44 44 43 42 42 42 43
40 40 39 38 38 40 41 41 41 41 41 41 41 42 42 40 43 43 43 41 39 39
38 38 37 37 37 36 37 38 37 38 40 40 39 41 41 39 41 39 39 39 38 38
38 36 35 35 35 35 35 36 37 37 36 36 36 40 40 38 36 36 35 36 36 36
36 36 35 35 34 34 35 35 35 34 35 34 34 39 40 37 34 33 34 33 34 34
33 33 34 34 33 35 35 34 34 33 33 33 34 36 39 39 34 34 34 33 34 33

GFSNIL_sfc_temp_138.txt.gz
Temp
70 71 71 71 71 71 71 69 70 70 69 69 69 69 68 66 66 66 63 63 63 62
71 70 71 71 72 72 71 72 71 70 68 69 69 68 67 64 62 62 62 60 60 61
71 71 71 71 70 71 72 71 69 68 68 68 68 67 66 63 62 61 61 61 59 59
70 70 71 71 71 71 70 70 68 67 67 66 66 66 65 62 62 60 60 60 58 58
69 69 69 69 70 70 68 69 67 67 66 65 65 65 64 62 61 60 59 59 58 57
67 67 66 67 67 67 67 66 64 64 63 63 63 63 63 62 62 59 60 58 55 54
64 64 64 65 64 64 64 63 62 62 62 62 63 62 61 58 57 54 52 50 50 50
61 62 62 61 60 60 60 61 61 60 58 56 54 51 50 49 49 48 47 46 47 49
57 56 55 55 53 52 51 53 51 48 47 46 43 43 44 47 48 48 47 46 45 45
47 46 47 46 44 43 44 43 43 44 45 44 44 42 42 42 48 47 46 45 44 44
46 45 42 41 41 41 43 45 45 45 46 45 43 42 41 39 47 46 45 44 42 41
44 41 41 39 40 41 40 40 41 40 39 39 38 41 41 41 41 39 38 39 40 39
43 40 39 41 39 37 39 37 38 36 38 36 37 39 40 40 37 35 36 35 36 35
40 39 41 38 36 36 37 37 36 35 35 35 36 38 39 38 36 36 35 35 35 36

GFSNIL_sfc_temp_141.txt.gz
Temp
72 71 71 73 73 72 70 70 71 69 69 69 69 68 68 67 66 66 65 65 65 64
72 71 71 72 73 73 72 72 72 71 69 68 68 69 69 66 65 65 64 63 62 62
72 72 72 73 71 72 73 73 71 70 69 68 69 69 68 66 65 62 61 60 60 60
71 72 72 71 72 72 72 72 70 70 69 68 68 68 66 65 63 60 59 59 58 58
71 71 71 71 71 71 69 71 71 70 68 67 67 67 65 64 61 59 58 58 58 57
68 69 69 70 70 70 70 70 70 68 66 66 66 66 65 64 63 60 60 59 57 57
67 68 68 69 69 69 69 68 67 66 66 65 65 64 63 62 62 61 58 57 55 53
65 66 67 66 65 65 65 65 65 63 63 62 61 59 59 56 58 54 51 49 49 49
62 61 60 60 60 60 59 59 59 58 57 56 49 45 47 50 50 48 47 45 45 45
55 54 55 51 48 48 49 49 48 49 49 48 46 43 44 44 48 47 47 46 44 42
48 48 44 45 46 44 44 46 44 44 45 44 42 42 42 41 46 46 46 45 43 41
47 46 43 43 43 44 42 41 43 41 41 41 39 41 41 42 41 39 38 39 39 39
45 44 43 43 41 37 41 39 39 37 39 38 39 40 40 41 37 35 35 35 35 34
42 41 43 42 38 39 38 37 37 37 36 36 37 38 40 40 36 36 35 34 34 34

GFSNIL_sfc_temp_144.txt.gz
Temp
70 69 68 68 68 67 67 66 66 65 66 65 66 65 64 63 63 63 62 61 60 61
71 69 69 69 69 69 69 68 67 66 65 65 65 65 64 63 62 62 61 61 61 61
70 70 70 70 68 69 70 69 67 65 65 65 65 64 64 63 62 61 62 62 61 61
70 70 69 69 68 69 69 68 67 66 65 64 64 63 63 62 62 61 62 61 59 59
68 69 68 67 68 68 68 68 67 67 65 64 63 63 62 63 63 62 60 59 57 57
66 66 66 67 67 67 67 67 67 66 64 65 64 63 62 64 64 61 60 59 57 57
63 65 65 66 66 66 66 65 65 65 65 64 63 62 61 62 62 60 59 57 57 57
62 63 63 62 63 63 63 64 64 63 63 62 61 60 59 57 59 59 56 54 55 54
58 58 59 59 57 59 60 61 61 60 61 59 55 48 49 53 56 54 52 51 48 47
52 51 51 51 50 50 53 54 54 55 55 55 52 46 47 46 54 52 52 49 46 42
45 47 45 45 47 46 47 50 50 48 52 53 50 44 45 43 50 50 49 47 45 43
44 43 42 43 46 47 44 44 45 44 46 47 43 42 43 44 44 41 40 41 42 41
43 44 43 46 45 41 44 44 41 39 43 40 41 41 42 44 41 37 36 35 36 35
41 43 45 45 42 39 41 38 38 38 36 37 38 39 41 41 38 38 35 35 33 33

GFSNIL_sfc_temp_147.txt.gz
Temp
69 68 68 67 67 66 65 65 66 65 65 65 65 64 64 63 62 63 61 61 61 61
69 68 68 68 68 67 67 67 66 65 64 64 65 64 64 62 62 62 62 61 61 60
70 69 69 69 67 67 68 68 66 65 64 64 64 64 64 63 63 61 61 61 61 60
69 70 70 68 68 68 68 68 67 65 63 62 63 63 62 62 62 61 61 61 60 60
68 68 68 68 68 68 67 67 67 65 64 63 62 63 61 61 62 61 60 60 60 60
65 66 66 67 68 68 67 67 66 65 63 63 62 62 62 62 62 61 61 61 60 60
61 64 65 66 66 66 67 65 65 65 64 64 63 62 62 61 61 61 61 61 60 59
59 60 62 62 63 64 64 64 65 64 64 63 63 62 61 60 60 61 60 58 57 57
54 55 55 57 58 59 60 61 62 62 62 61 61 54 50 57 60 60 57 56 55 55
50 50 52 53 53 52 56 58 58 60 60 60 61 49 48 47 59 58 57 57 54 50
44 46 46 44 46 50 51 54 54 57 59 60 59 47 47 45 59 56 57 56 52 50
44 44 42 42 46 49 48 49 52 55 54 55 55 45 46 46 54 51 50 51 49 48
42 39 41 43 45 46 47 48 48 44 48 46 52 43 44 47 49 41 39 35 38 37
40 40 41 43 42 43 44 41 40 40 40 39 41 41 42 43 42 44 38 38 36 36